Regional Weather Roundup
Issued by NWS Charleston, WV

Home | Current Version | Previous Version | Text Only | Print | Product List | Glossary Off
Versions: 1 2 3 4 5 6 7 8 9 10 11 12 13 14 15 16 17 18 19 20 21 22 23 24 25 26 27 28 29 30 31 32 33 34 35 36 37 38 39 40 41 42 43 44 45 46 47 48 49 50

230
ASUS41 KRLX 071410
RWRRLX
West Virginia Regional Weather Roundup
National Weather Service Charleston WV
900 AM EST WED DEC 07 2016

Note: "fair" indicates few or no clouds below 12,000 feet with no
significant weather and/or obstructions to visibility.

WVZ003-071500-
Northern Panhandle of West Virginia

CITY           SKY/WX    TMP DP  RH WIND       PRES   REMARKS
WHEELING       MOSUNNY   32  27  81 W9        30.08R
$$

WVZ009-071500-
Northwest West Virginia

CITY           SKY/WX    TMP DP  RH WIND       PRES   REMARKS
PARKERSBURG    PTSUNNY   35  28  75 W5        30.15R
$$

WVZ006-071500-
Western West Virginia

CITY           SKY/WX    TMP DP  RH WIND       PRES   REMARKS
HUNTINGTON     SUNNY     37  30  75 NW6       30.14R
$$

WVZ015-071500-
West Central West Virginia

CITY           SKY/WX    TMP DP  RH WIND       PRES   REMARKS
CHARLESTON     PTSUNNY   37  31  78 W3        30.13R
$$

WVZ022-031-071500-
North Central West Virginia

CITY           SKY/WX    TMP DP  RH WIND       PRES   REMARKS
CLARKSBURG     CLOUDY    37  33  85 W8        30.10R
MORGANTOWN     SUNNY     39  33  79 VRB3      30.08R
$$

WVZ025-035-042-045-071500-
Southern West Virginia

CITY           SKY/WX    TMP DP  RH WIND       PRES   REMARKS
BECKLEY        CLOUDY    35  30  82 NW6       30.06R
LOGAN          CLOUDY    36  34  93 CALM      30.10R
BLUEFIELD      CLOUDY    33  31  92 W6        30.05R
LEWISBURG      CLOUDY    33  29  83 CALM      30.04R
$$

WVZ047-071500-
Northern Mountains of West Virginia

CITY           SKY/WX    TMP DP  RH WIND       PRES   REMARKS
ELKINS         PTSUNNY   36  29  75 VRB3      30.07R
$$

WVZ052-071500-
Eastern Panhandle of West Virginia

CITY           SKY/WX    TMP DP  RH WIND       PRES   REMARKS
MARTINSBURG    CLOUDY    41  34  76 N3        30.04R
PETERSBURG     MOSUNNY   41  35  79 CALM      30.04R
$$




USA.gov is the U.S. government's official web portal to all federal, state and local government web resources and services.